This is the latest recevied weather packets stored in our database for station/object K9MWD. If no packets are shown the sender has not sent any weather packets the latest 10 day(s).
| Time | Temp. | Humidity | Pressure | Rain* | Wind** | Luminosity | Snow |
|---|---|---|---|---|---|---|---|
| 1787876268 | 35° C | 40% | 1012.8 hPa | 0 mm | - | 20 W/m² | - |
| 1787875966 | 35.56° C | 40% | 1012.7 hPa | 0 mm | - | 24 W/m² | - |
| 1787875662 | 35.56° C | 39% | 1012.7 hPa | 0 mm | - | 31 W/m² | - |
| 1787875360 | 35.56° C | 39% | 1012.8 hPa | 0 mm | - | 46 W/m² | - |
| 1787875059 | 36.11° C | 39% | 1012.8 hPa | 0 mm | - | 58 W/m² | - |
| 1787874759 | 36.11° C | 39% | 1012.6 hPa | 0 mm | - | 72 W/m² | - |
| 1787874453 | 36.67° C | 38% | 1012.7 hPa | 0 mm | - | 87 W/m² | - |
| 1787874148 | 36.67° C | 38% | 1012.6 hPa | 0 mm | - | 101 W/m² | - |
| 1787873843 | 36.67° C | 38% | 1012.6 hPa | 0 mm | - | 110 W/m² | - |
| 1787873542 | 36.11° C | 39% | 1012.4 hPa | 0 mm | - | 124 W/m² | - |
| 1787873238 | 36.11° C | 40% | 1012.5 hPa | 0 mm | - | 74 W/m² | - |
| 1787872936 | 36.67° C | 40% | 1012.5 hPa | 0 mm | - | 94 W/m² | - |
| 1787872632 | 37.22° C | 40% | 1012.6 hPa | 0 mm | - | 105 W/m² | - |
| 1787872327 | 36.67° C | 39% | 1012.4 hPa | 0 mm | - | 198 W/m² | - |
| 1787872021 | 36.67° C | 39% | 1012.6 hPa | 0 mm | - | 161 W/m² | - |
| 1787871717 | 36.67° C | 40% | 1012.5 hPa | 0 mm | - | 240 W/m² | - |
| 1787871421 | 36.67° C | 39% | 1012.5 hPa | 0 mm | - | 270 W/m² | - |
| 1787871108 | 36.67° C | 39% | 1012.6 hPa | 0 mm | - | 156 W/m² | - |
| 1787870807 | 36.67° C | 40% | 1012.5 hPa | 0 mm | - | 187 W/m² | - |
| 1787870502 | 37.22° C | 39% | 1012.6 hPa | 0 mm | - | 138 W/m² | - |
| 1787870197 | 37.22° C | 38% | 1012.5 hPa | 0 mm | - | 201 W/m² | - |
| 1787869892 | 37.22° C | 38% | 1012.4 hPa | 0 mm | - | 102 W/m² | - |
| 1787869590 | 37.22° C | 38% | 1012.4 hPa | 0 mm | - | 105 W/m² | - |
| 1787869286 | 37.78° C | 37% | 1012.8 hPa | 0 mm | - | 182 W/m² | - |
| 1787868985 | 37.78° C | 37% | 1012.7 hPa | 0 mm | - | 400 W/m² | - |
* Rain latest hour (hover to see other rain measurements)
** Current wind speed in m/s (hover to see current wind gust speed)